Location: Geremba
(10.4250°N, 67.2394°W)
Time: 00:25:28
(UTC+00:00)

CZ-3 R/B - Pass Details

Date: 23 May 2024
Orbit: 492 x 10075 km, 28.3° (Epoch: 11 June)

Event Time Altitude Azimuth Distance (km) Brightness Sun altitude
Rises 07:15:47 0° 290° (WNW) 14,744 7.3 -37.9°
Reaches altitude 10° 07:34:23 10° 295° (WNW) 12,411 6.8 -34.2°
Maximum altitude 08:17:35 59° 12° (NNE) 3,320 4.3 -25.1°
Drops below altitude 10° 08:27:40 10° 91° (E) 3,659 5.3 -22.9°
Sets 08:29:40 0° 96° (E) 4,201 5.7 -22.5°
